Regional Weather Roundup
Issued by NWS Albany, NY

Home | Current Version | Previous Version | Text Only | Print | Product List | Glossary On
Versions: 1 2 3 4 5 6 7 8 9 10 11 12 13 14 15 16 17 18 19 20 21 22 23 24 25 26 27 28 29 30 31 32 33 34 35 36 37 38 39 40 41 42 43 44 45 46 47 48 49 50
000
ASUS41 KALY 010210
RWRALY

NEW YORK STATE HOURLY WEATHER ROUNDUP
NATIONAL WEATHER SERVICE ALBANY NY
900 PM EST SAT JAN 31 2015

NOTE: "FAIR" INDICATES FEW OR NO CLOUDS BELOW 12,000 FEET WITH NO
SIGNIFICANT WEATHER AND/OR NO OBSTRUCTIONS TO VISIBILITY.

NYZ032-033-038>043-046>054-057>066-NYZ062>081-010300-
EAST


CITY           SKY/WX    TMP DP  RH WIND       PRES   REMARKS
ALBANY         MOCLDY    14   1  56 NW9       30.20S WCI   2
GLENS FALLS    PTCLDY    -4 -10  75 CALM      30.18R
POUGHKEEPSIE   CLEAR     14  -1  51 CALM      30.18F
NEWBURGH       CLEAR     16   7  67 NW15      30.16S WCI   1
MONTGOMERY     CLEAR     16   2  54 SW5       30.16S WCI   9
WHITE PLAINS   CLEAR     18   3  52 NW14      30.14R WCI   4
ISLIP          CLEAR     21   2  43 NW9       30.15R WCI  11
NEW YORK CITY  CLEAR     22   8  55 NW17      30.20R WCI   8
CENTRAL PARK   CLEAR     22   4  46 VRB7G17   30.21S WCI  13
$$

NYZ005>009-017-018-044>046-055-056-010300-
CENTRAL


CITY           SKY/WX    TMP DP  RH WIND       PRES   REMARKS
FULTON         CLOUDY    14   6  70 CALM      30.18F
SYRACUSE       FLURRIES  14   8  77 CALM      30.18F
ROME           CLOUDY    10   4  76 SE3       30.21F
ELMIRA         PTCLDY     4   2  91 CALM      30.18F
BINGHAMTON     FAIR      10   3  73 W5        30.10F WCI   2
MONTICELLO     PTCLDY    10   3  72 W6        30.10S WCI   1
$$

NYZ026>034-041>043-010300-
NORTH


CITY           SKY/WX    TMP DP  RH WIND       PRES   REMARKS
WATERTOWN      CLOUDY    15   7  70 S5        30.17F WCI   8
FORT DRUM      NOT AVBL
MASSENA        CLOUDY     6  -6  57 SW10      30.20F WCI  -9
SARANAC LAKE   CLOUDY    -4 -11  72 SW3       30.04F
PLATTSBURGH    PTCLDY     7  -9  48 W5        30.17F WCI  -2
$$

NYZ001>004-010>016-019>021-010300-
WEST


CITY           SKY/WX    TMP DP  RH WIND       PRES   REMARKS
NIAGARA FALLS  CLOUDY    25  19  78 SW13      30.17S WCI  14
BUFFALO        CLOUDY    25  18  74 SW16      30.17S WCI  12
DUNKIRK        CLOUDY    26  18  71 SW10      30.19F WCI  16
JAMESTOWN      CLOUDY    19  14  79 SW12      30.13F WCI   7
WELLSVILLE     CLOUDY    19  11  70 W13       30.10F WCI   6
ROCHESTER      CLOUDY    22  13  68 SW9       30.17F WCI  12
PENN YAN       CLOUDY    11   5  77 CALM      30.15F
$$

             KEY
       WCI = WIND CHILL INDEX
       VSB = VISIBILITY
       HX  = HEAT INDEX
$$


USA.gov is the U.S. government's official web portal to all federal, state and local government web resources and services.